{"data":{"norad_id":55764,"epoch":"2026-05-25T02:07:39.308160Z","epoch_age_seconds":77505,"freshness":"FRESH","line1":"1 55764U 23028Z   26145.08864940 -.00000158  00000+0 -54255-5 0  9990","line2":"2 55764  69.9999  31.9630 0002763 267.8927  92.1916 14.98333060177977","mean_motion":14.9833306,"eccentricity":0.0002763,"inclination_deg":69.9999,"raan_deg":31.963,"arg_perigee_deg":267.8927,"mean_anomaly_deg":92.1916,"bstar":-5.4255e-6,"rev_number":17797,"period_min":96.106802849294,"perigee_km":570.12609248174,"apogee_km":573.96676384414,"semimajor_km":6950.1834281629,"source":"CELESTRAK","updated_at":"2026-05-25T13:38:17.882251Z"}}